Regional Weather Roundup
Issued by NWS

Home | Current Version | Previous Version | Graphics & Text | Print | Product List | Glossary On
Versions: 1 2 3 4 5 6 7 8 9 10 11 12 13 14 15 16 17 18 19 20 21 22 23 24 25 26 27 28 29 30 31 32 33 34 35 36 37 38 39 40 41 42 43 44 45 46 47 48 49 50
000
ASUS45 KBOI 050210
RWRID
WEATHER ROUNDUP FOR IDAHO
NATIONAL WEATHER SERVICE BOISE ID
800 PM MDT MON MAY 04 2015

NOTE: "FAIR" INDICATES FEW OR NO CLOUDS BELOW 12000 FEET
WITH NO SIGNIFICANT WEATHER AND/OR OBSTRUCTIONS TO VISIBILITY

IDZ012-014-050300-
SOUTHWEST IDAHO


CITY           SKY/WX    TMP DP  RH WIND       PRES   REMARKS
BOISE          PTCLDY    80  34  19 NW8       29.71F
CALDWELL       PTCLDY    79  37  22 NW3       29.71F
$$

IDZ016-017-050300-
SOUTHCENTRAL IDAHO


CITY           SKY/WX    TMP DP  RH WIND       PRES   REMARKS
BURLEY         MOCLDY    65  43  44 CALM      29.81S
JEROME         CLOUDY    67  40  37 S8        29.82S
TWIN FALLS     CLOUDY    66  40  38 S14       29.82S
$$

IDZ019>023-050300-
SOUTHEAST IDAHO


CITY           SKY/WX    TMP DP  RH WIND       PRES   REMARKS
IDAHO FALLS    CLOUDY    70  37  29 S12       29.86S
POCATELLO      PTCLDY    69  36  29 S9        29.85S
REXBURG        MOCLDY    69  30  23 S6        29.85F
$$

IDZ006-010-011-018-031-032-050300-
CENTRAL IDAHO MOUNTAINS


CITY           SKY/WX    TMP DP  RH WIND       PRES   REMARKS
MCCALL         CLEAR     67  29  24 SW7       29.82F
HAILEY         MOCLDY    63  37  39 S6        29.92S
STANLEY          N/A     61  29  29 S6        29.94F
SALMON           N/A     72  28  20 E8        29.78F
CHALLIS        PTCLDY    66  34  30 SE8       29.84F
$$

IDZ002-004-006-007-026-050300-
NORTHERN IDAHO


CITY           SKY/WX    TMP DP  RH WIND       PRES   REMARKS
LEWISTON       PTCLDY    75  32  20 NW7       29.72S
LOWELL           N/A     66  48  52 CALM      29.67S
COEUR D`ALENE  CLEAR     70  28  21 SW8       29.75S
MULLAN PASS    CLEAR     54  22  28 VRB5      29.89S
$$


USA.gov is the U.S. government's official web portal to all federal, state and local government web resources and services.